| time (UTC) | temp C | wind direction | speed KPH | gust KPH | rain 1hr cm | rain 24hr cm | rain mn cm | humidity % | barometer mb |
| 20260504191600 | 12 | 318 | 11.3 | 35.4 | 0.00 | 2.44 | 0.91 | 55 | 1000.8 |
| 20260504190112 | 12 | 286 | 16.1 | 40.2 | 0.00 | 2.44 | 0.91 | 56 | 1000.6 |
| 20260504184603 | 11 | 246 | 16.1 | 45.1 | 0.00 | 2.46 | 0.91 | 59 | 1000.4 |
| 20260504183046 | 11 | 313 | 14.5 | 49.9 | 0.00 | 2.46 | 0.91 | 62 | 1000.2 |
| 20260504181547 | 11 | 298 | 16.1 | 46.7 | 0.00 | 2.46 | 0.91 | 64 | 999.9 |
| 20260504180042 | 11 | 281 | 16.1 | 51.5 | 0.00 | 2.46 | 0.91 | 68 | 999.9 |
| 20260504174537 | 10 | 275 | 11.3 | 41.8 | 0.00 | 2.46 | 0.91 | 73 | 999.6 |
| 20260504173034 | 10 | 285 | 19.3 | 51.5 | 0.00 | 2.46 | 0.91 | 73 | 999.6 |
| 20260504171533 | 10 | 297 | 14.5 | 43.5 | 0.00 | 2.46 | 0.91 | 78 | 999.1 |
| 20260504140107 | 5 | 287 | 9.7 | 33.8 | 0.15 | 2.41 | 0.89 | 96 | 995.7 |
| 20260504100113 | 2 | 280 | 9.7 | 41.8 | 0.05 | 1.96 | 0.43 | 96 | 986.1 |
| 20260504081536 | 3 | 270 | 11.3 | 40.2 | 0.05 | 1.85 | 0.33 | 97 | 980.2 |
| 20260504050001 | 3 | 214 | 0.0 | 6.4 | 0.05 | 1.65 | 0.10 | 98 | 974.6 |
| 20260504044601 | 3 | 169 | 0.0 | 3.2 | 0.05 | 1.63 | 0.08 | 98 | 974.4 |
| 20260504043115 | 3 | 169 | 0.0 | 8.0 | 0.05 | 1.60 | 0.05 | 98 | 974.0 |
| 20260504041557 | 3 | 118 | 6.4 | 12.9 | 0.05 | 1.60 | 0.05 | 98 | 974.1 |
| 20260504040055 | 3 | 103 | 6.4 | 25.7 | 0.05 | 1.57 | 0.05 | 97 | 974.4 |
| 20260504034553 | 3 | 132 | 8.0 | 30.6 | 0.05 | 1.55 | 0.03 | 97 | 975.0 |
| 20260504033054 | 3 | 120 | 12.9 | 30.6 | 0.05 | 1.55 | 0.03 | 97 | 975.7 |
| 20260504031548 | 3 | 137 | 14.5 | 30.6 | 0.03 | 1.55 | 0.00 | 97 | 976.5 |
| 20260504030041 | 3 | 116 | 12.9 | 45.1 | 0.03 | 1.55 | 0.00 | 96 | 977.0 |
| 20260504024547 | 4 | 112 | 14.5 | 33.8 | 0.00 | 1.52 | 1.52 | 96 | 978.0 |
| 20260504023034 | 4 | 171 | 9.7 | 24.1 | 0.00 | 1.52 | 1.52 | 96 | 979.0 |
| 20260504021531 | 5 | 123 | 14.5 | 25.7 | 0.03 | 1.52 | 1.52 | 96 | 979.6 |
| 20260504020031 | 5 | 121 | 16.1 | 29.0 | 0.05 | 1.52 | 1.52 | 97 | 980.5 |
| 20260504014525 | 5 | 134 | 14.5 | 27.4 | 0.13 | 1.52 | 1.52 | 97 | 981.6 |
| 20260504013021 | 5 | 102 | 9.7 | 35.4 | 0.15 | 1.52 | 1.52 | 97 | 982.2 |
| 20260504011519 | 5 | 110 | 12.9 | 37.0 | 0.20 | 1.45 | 1.45 | 97 | 982.6 |
| 20260504010017 | 5 | 129 | 12.9 | 29.0 | 0.20 | 1.42 | 1.42 | 97 | 983.1 |
| 20260504004533 | 5 | 113 | 12.9 | 45.1 | 0.15 | 1.40 | 1.40 | 97 | 984.1 |
| 20260504003012 | 5 | 121 | 12.9 | 33.8 | 0.15 | 1.37 | 1.37 | 97 | 984.6 |
| 20260504001509 | 5 | 88 | 8.0 | 29.0 | 0.08 | 1.27 | 1.27 | 97 | 985.5 |
| 20260504000006 | 5 | 95 | 6.4 | 32.2 | 0.18 | 1.27 | 1.27 | 97 | 986.1 |
| 20260503234504 | 4 | 72 | 6.4 | 25.7 | 0.33 | 1.24 | 1.24 | 97 | 986.6 |
| 20260503233001 | 3 | 135 | 4.8 | 24.1 | 0.43 | 1.22 | 1.22 | 97 | 987.9 |
| 20260503231600 | 3 | 310 | 3.2 | 19.3 | 0.48 | 1.19 | 1.19 | 97 | 988.7 |
| 20260503230108 | 3 | 102 | 9.7 | 30.6 | 0.46 | 1.09 | 1.09 | 97 | 989.3 |
| 20260503224554 | 3 | 81 | 6.4 | 24.1 | 0.48 | 0.94 | 0.94 | 97 | 990.2 |
| 20260503223050 | 3 | 140 | 3.2 | 14.5 | 0.48 | 0.79 | 0.79 | 96 | 991.5 |
| 20260503221552 | 3 | 61 | 4.8 | 19.3 | 0.43 | 0.71 | 0.71 | 96 | 992.4 |
| 20260503220044 | 3 | 48 | 4.8 | 17.7 | 0.38 | 0.61 | 0.61 | 96 | 993.7 |
| 20260503214541 | 3 | 52 | 4.8 | 16.1 | 0.30 | 0.46 | 0.46 | 96 | 994.8 |
| 20260503213038 | 3 | 149 | 6.4 | 16.1 | 0.23 | 0.33 | 0.33 | 96 | 995.3 |
| 20260503211540 | 3 | 125 | 8.0 | 17.7 | 0.18 | 0.25 | 0.25 | 96 | 995.5 |
| 20260503210034 | 3 | 136 | 4.8 | 22.5 | 0.15 | 0.23 | 0.23 | 95 | 995.9 |
| 20260503204533 | 4 | 81 | 8.0 | 19.3 | 0.10 | 0.15 | 0.15 | 95 | 996.0 |
| 20260503203030 | 4 | 122 | 4.8 | 16.1 | 0.05 | 0.10 | 0.10 | 95 | 997.2 |
| 20260503201529 | 5 | 127 | 6.4 | 17.7 | 0.05 | 0.08 | 0.08 | 94 | 997.4 |
| 20260503200027 | 5 | 128 | 4.8 | 17.7 | 0.05 | 0.08 | 0.08 | 94 | 997.8 |
| 20260503194524 | 5 | 332 | 6.4 | 24.1 | 0.05 | 0.05 | 0.05 | 93 | 998.2 |
| 20260503193034 | 5 | 46 | 6.4 | 20.9 | 0.03 | 0.05 | 0.05 | 93 | 999.5 |